FW7079 Weather Reports


time (UTC)temp
F
wind
direction
speed
knots
gust
knots
rain 1hr
in
rain 24hr
in
rain mn
in
humidity
%
barometer
mb
20260506004550 50 303 0.0 2.6 0.00 0.00 0.00 81 1011.1
20260506003049 51 12 0.0 2.6 0.00 0.00 0.00 80 1011.0
20260506001602 51 0 0.0 4.3 0.00 0.00 0.00 80 1010.9
20260506000119 51 324 0.0 3.5 0.00 0.00 0.00 79 1010.8
20260505234552 51 259 0.9 5.2 0.00 0.00 0.00 78 1010.9
20260505233053 52 0 0.0 3.5 0.00 0.00 0.00 77 1011.4
20260505231558 52 0 0.9 1.7 0.00 0.00 0.00 76 1010.8
20260505230052 53 223 0.0 6.1 0.00 0.00 0.00 76 1010.5
20260505224554 53 0 0.0 3.5 0.00 0.00 0.00 76 1010.4
20260505223053 53 202 0.9 2.6 0.00 0.00 0.00 77 1010.4
20260505221557 53 288 0.9 3.5 0.00 0.00 0.00 77 1010.0
20260505220106 54 242 0.9 7.8 0.00 0.00 0.00 76 1010.0
20260505214602 54 0 0.9 4.3 0.00 0.00 0.00 76 1009.3
20260505213053 54 158 0.9 3.5 0.00 0.00 0.00 76 1009.4
20260505211631 55 304 0.9 2.6 0.00 0.00 0.00 76 1008.7
20260505210054 54 223 0.9 3.5 0.00 0.00 0.00 77 1008.8
20260505204610 55 274 0.0 1.7 0.00 0.00 0.00 76 1010.0
20260505203052 55 259 0.9 5.2 0.00 0.00 0.00 76 1009.1
20260505201552 55 282 0.9 4.3 0.00 0.00 0.00 75 1008.8
20260505200051 55 0 0.0 4.3 0.00 0.00 0.00 78 1009.0
20260505194549 55 207 0.9 5.2 0.00 0.00 0.00 79 1009.0
20260505193052 55 259 1.7 3.5 0.00 0.00 0.00 80 1008.9
20260505191552 55 275 0.9 3.5 0.00 0.00 0.00 80 1008.6
20260505190050 56 247 0.9 3.5 0.00 0.00 0.00 80 1008.7
20260505184552 57 44 0.9 6.1 0.00 0.00 0.00 80 1008.4
20260505183051 57 259 0.0 2.6 0.00 0.00 0.00 80 1008.3
20260505181639 57 240 0.9 6.1 0.00 0.00 0.00 80 1007.8
20260505174553 57 46 0.9 5.2 0.00 0.00 0.00 81 1007.5
20260505173053 57 283 0.9 4.3 0.00 0.00 0.00 82 1007.3
20260505171559 57 11 0.0 1.7 0.00 0.00 0.00 82 1007.3
20260505170054 57 223 0.9 4.3 0.00 0.00 0.00 81 1007.0
20260505164551 57 0 0.0 5.2 0.00 0.00 0.00 83 1006.6
20260505163052 58 0 0.9 5.2 0.00 0.00 0.00 82 1006.1
20260505161553 59 348 0.9 7.0 0.00 0.00 0.00 82 1005.6
20260505153056 65 0 0.0 5.2 0.00 0.00 0.00 80 1004.1
20260505151551 68 320 0.0 6.1 0.00 0.00 0.00 83 1003.6
20260505124554 66 207 0.0 0.9 0.00 0.00 0.00 88 1001.9
20260505123059 65 0 0.0 0.9 0.00 0.00 0.00 87 1002.0
20260505121557 66 0 0.0 0.0 0.00 0.00 0.00 87 1001.6
20260505120111 66 0 0.0 0.0 0.00 0.00 0.00 86 1001.6
20260505114554 66 0 0.0 0.0 0.00 0.00 0.00 85 1001.2
20260505113052 67 0 0.0 0.0 0.00 0.00 0.00 84 1000.7
20260505111552 68 0 0.0 0.0 0.00 0.00 0.00 82 1000.6
20260505110112 69 0 0.0 0.0 0.00 0.00 0.00 80 1000.1
20260505101602 71 144 1.7 7.0 0.00 0.00 0.00 77 999.1
20260505100057 71 126 0.0 5.2 0.00 0.00 0.00 77 999.0
20260505094553 71 132 1.7 7.0 0.00 0.00 0.00 77 999.1
20260505093053 72 136 1.7 7.0 0.00 0.00 0.00 77 998.9
20260505091557 71 144 0.9 6.1 0.00 0.00 0.00 77 999.2
20260505090057 71 132 0.9 6.1 0.00 0.00 0.00 77 999.1
20260505084602 71 124 0.9 5.2 0.00 0.00 0.00 77 999.3
20260505083105 71 158 1.7 7.8 0.00 0.00 0.00 78 999.3
20260505081551 71 142 0.9 6.1 0.00 0.00 0.00 77 999.6
20260505080054 71 175 1.7 7.8 0.00 0.00 0.00 77 999.7
20260505074554 71 132 0.9 5.2 0.00 0.00 0.00 77 999.8
20260505073059 71 142 2.6 7.8 0.00 0.00 0.00 77 1000.0
20260505071555 71 126 1.7 6.1 0.00 0.00 0.00 77 1000.3
20260505070053 71 131 1.7 4.3 0.00 0.00 0.00 77 1000.6
20260505064625 72 132 0.9 8.7 0.00 0.00 0.00 76 1000.7
20260505063053 71 97 1.7 6.1 0.00 0.00 0.00 76 1000.9
20260505061552 71 132 0.9 5.2 0.00 0.00 0.00 76 1001.1
20260505060058 71 159 0.9 5.2 0.00 0.00 0.00 76 1001.2
20260505054558 71 78 1.7 5.2 0.00 0.00 0.00 76 1001.5
20260505053057 72 121 0.9 6.1 0.00 0.00 0.00 75 1001.6
20260505051555 72 39 0.9 5.2 0.00 0.00 0.00 75 1001.7
20260505041603 73 209 1.7 8.7 0.00 0.00 0.00 72 1002.3
20260505034606 74 121 1.7 6.1 0.00 0.00 0.00 72 1002.3
20260505033055 74 132 2.6 7.8 0.00 0.00 0.00 71 1002.3
20260505031552 75 105 0.9 7.8 0.00 0.00 0.00 70 1002.2
20260505030101 75 98 1.7 9.6 0.00 0.00 0.00 70 1002.0
20260505024608 75 132 1.7 7.0 0.00 0.00 0.00 69 1002.0
20260505023054 76 39 2.6 6.1 0.00 0.00 0.00 68 1001.8
20260505021550 76 202 1.7 6.1 0.00 0.00 0.00 68 1001.5
20260505020104 76 105 1.7 7.0 0.00 0.00 0.00 68 1001.7
20260505014551 76 132 1.7 5.2 0.00 0.00 0.00 67 1001.7
20260505013054 76 44 1.7 6.1 0.00 0.00 0.00 67 1001.6
20260505011556 77 126 1.7 4.3 0.00 0.00 0.00 66 1001.7
20260505010110 77 132 1.7 6.1 0.00 0.00 0.00 66 1001.8